Location: Delia
(51.6321°N, 112.3740°W)
Time: 17:39:17
(UTC+00:00)

X-37B - Pass Details

Date: 10 December 2021
Orbit: 334 x 337 km, 45.0° (Epoch: 11 January)

Event Time Altitude Azimuth Distance (km) Brightness Sun altitude
Rises 01:29:23 0° 230° (SW) 2,100 5.4 -18.9°
Reaches altitude 10° 01:31:50 10° 208° (SSW) 1,265 3.7 -19.2°
Enters shadow 01:33:20 16° 176° (S) 978 2.7 -19.5°
